Overview Statistics Trail Chart Weather Telemetry Raw packets
 

This is the latest recevied weather packets stored in our database for station/object KJ6HT. If no packets are shown the sender has not sent any weather packets the latest 10 day(s).

<< 1 2 3 4 5 >>
Time Temp. Humidity Pressure Rain* Wind** Luminosity Snow
1788663646 28.33° C 30% 1010.5 hPa 0 mm - - -
1788662746 28.33° C 30% 1010.4 hPa 0 mm - - -
1788661850 28.89° C 30% 1010.5 hPa 0 mm - - -
1788660940 29.44° C 30% 1010.4 hPa 0 mm - - -
1788660052 30° C 30% 1010.3 hPa 0 mm - - -
1788659139 30° C 30% 1010.1 hPa 0 mm - - -
1788658248 30.56° C 31% 1010.2 hPa 0 mm - - -
1788657349 30.56° C 30% 1010.2 hPa 0 mm - - -
1788656440 30.56° C 31% 1010.3 hPa 0 mm - - -
1788655536 31.67° C 31% 1010.2 hPa 0 mm - - -
1788654637 31.67° C 31% 1010.2 hPa 0 mm - - -
1788653736 32.22° C 32% 1010 hPa 0 mm - - -
1788652883 32.78° C 31% 1010 hPa 0 mm - - -
1788651932 33.33° C 30% 1009.9 hPa 0 mm - - -
1788651042 33.89° C 29% 1009.9 hPa 0 mm - - -
1788650130 34.44° C 28% 1009.9 hPa 0 mm - - -
1788649228 34.44° C 27% 1010.1 hPa 0 mm - - -
1788648327 33.89° C 26% 1010.2 hPa 0 mm - - -
1788647426 34.44° C 24% 1010.3 hPa 0 mm - - -
1788646524 35° C 23% 1010.4 hPa 0 mm - - -
1788645622 35° C 24% 1010.6 hPa 0 mm - - -
1788644720 34.44° C 23% 1010.8 hPa 0 mm - - -
1788643818 34.44° C 22% 1011 hPa 0 mm - - -
1788642952 33.89° C 22% 1011.1 hPa 0 mm - - -
1788642016 34.44° C 22% 1011.1 hPa 0 mm - - -

* Rain latest hour (hover to see other rain measurements)
** Current wind speed in m/s (hover to see current wind gust speed)